| time (UTC) | temp F | wind direction | speed MPH | gust MPH | rain 1hr in | rain 24hr in | rain mn in | humidity % | barometer mb |
| 20260509211606 | 72 | 355 | 1.0 | 0.0 | 0.00 | 0.00 | 0.00 | 18 | 1015.5 |
| 20260509210040 | 72 | 38 | 1.0 | 0.0 | 0.00 | 0.00 | 0.00 | 21 | 1015.5 |
| 20260509204551 | 71 | 333 | 2.0 | 0.0 | 0.00 | 0.00 | 0.00 | 17 | 1015.7 |
| 20260509203042 | 71 | 34 | 1.0 | 0.0 | 0.00 | 0.00 | 0.00 | 18 | 1015.7 |
| 20260509201535 | 70 | 78 | 2.0 | 0.0 | 0.00 | 0.00 | 0.00 | 18 | 1015.7 |
| 20260509200023 | 70 | 53 | 2.0 | 0.0 | 0.00 | 0.00 | 0.00 | 19 | 1015.7 |
| 20260509194518 | 69 | 344 | 2.0 | 0.0 | 0.00 | 0.00 | 0.00 | 20 | 1015.9 |
| 20260509193016 | 68 | 5 | 3.0 | 0.0 | 0.00 | 0.00 | 0.00 | 18 | 1016.0 |
| 20260509191513 | 67 | 26 | 2.0 | 0.0 | 0.00 | 0.00 | 0.00 | 19 | 1016.1 |
| 20260509190016 | 67 | 5 | 3.0 | 0.0 | 0.00 | 0.00 | 0.00 | 16 | 1016.2 |
| 20260509184511 | 67 | 336 | 3.0 | 0.0 | 0.00 | 0.00 | 0.00 | 16 | 1016.3 |
| 20260509183018 | 67 | 56 | 3.0 | 0.0 | 0.00 | 0.00 | 0.00 | 18 | 1016.3 |
| 20260509181509 | 66 | 30 | 3.0 | 0.0 | 0.00 | 0.00 | 0.00 | 19 | 1016.3 |
| 20260509180050 | 65 | 65 | 4.0 | 0.0 | 0.00 | 0.00 | 0.00 | 18 | 1016.2 |
| 20260509174552 | 65 | 325 | 3.0 | 0.0 | 0.00 | 0.00 | 0.00 | 17 | 1016.2 |
| 20260509173030 | 65 | 17 | 3.0 | 0.0 | 0.00 | 0.00 | 0.00 | 16 | 1016.0 |
| 20260509171529 | 64 | 87 | 3.0 | 0.0 | 0.00 | 0.00 | 0.00 | 15 | 1016.0 |
| 20260509170016 | 65 | 35 | 2.0 | 0.0 | 0.00 | 0.00 | 0.00 | 14 | 1016.0 |
| 20260509164515 | 65 | 78 | 2.0 | 0.0 | 0.00 | 0.00 | 0.00 | 15 | 1016.0 |
| 20260509163013 | 64 | 36 | 2.0 | 0.0 | 0.00 | 0.00 | 0.00 | 15 | 1016.1 |
| 20260509161514 | 63 | 22 | 1.0 | 0.0 | 0.00 | 0.00 | 0.00 | 16 | 1016.2 |
| 20260509160011 | 64 | 342 | 1.0 | 0.0 | 0.00 | 0.00 | 0.00 | 15 | 1016.2 |
| 20260509154509 | 63 | 29 | 1.0 | 0.0 | 0.00 | 0.00 | 0.00 | 18 | 1016.1 |
| 20260509153016 | 63 | 280 | 1.0 | 0.0 | 0.00 | 0.00 | 0.00 | 17 | 1016.1 |
| 20260509151504 | 62 | 267 | 1.0 | 0.0 | 0.00 | 0.00 | 0.00 | 20 | 1016.1 |
| 20260509150049 | 60 | 304 | 1.0 | 0.0 | 0.00 | 0.00 | 0.00 | 27 | 1016.0 |
| 20260509144546 | 56 | 5 | 0.0 | 0.0 | 0.00 | 0.00 | 0.00 | 28 | 1016.0 |
| 20260509143050 | 55 | 347 | 0.0 | 0.0 | 0.00 | 0.00 | 0.00 | 44 | 1016.0 |
| 20260509141546 | 54 | 347 | 0.0 | 0.0 | 0.00 | 0.00 | 0.00 | 48 | 1015.9 |
| 20260509140048 | 53 | 336 | 0.0 | 0.0 | 0.00 | 0.00 | 0.00 | 44 | 1015.8 |
| 20260509134551 | 52 | 335 | 0.0 | 0.0 | 0.00 | 0.00 | 0.00 | 49 | 1015.7 |
| 20260509133046 | 52 | 335 | 0.0 | 0.0 | 0.00 | 0.00 | 0.00 | 49 | 1015.4 |
| 20260509131536 | 53 | 335 | 0.0 | 0.0 | 0.00 | 0.00 | 0.00 | 45 | 1015.2 |
| 20260509130023 | 53 | 335 | 0.0 | 0.0 | 0.00 | 0.00 | 0.00 | 45 | 1015.1 |
| 20260509124522 | 54 | 334 | 0.0 | 0.0 | 0.00 | 0.00 | 0.00 | 42 | 1014.8 |
| 20260509123018 | 54 | 360 | 0.0 | 0.0 | 0.00 | 0.00 | 0.00 | 42 | 1014.5 |
| 20260509121516 | 55 | 345 | 1.0 | 0.0 | 0.00 | 0.00 | 0.00 | 42 | 1014.4 |
| 20260509120016 | 55 | 5 | 2.0 | 0.0 | 0.00 | 0.00 | 0.00 | 41 | 1014.1 |
| 20260509114512 | 55 | 10 | 2.0 | 0.0 | 0.00 | 0.00 | 0.00 | 42 | 1014.0 |
| 20260509113013 | 55 | 355 | 2.0 | 0.0 | 0.00 | 0.00 | 0.00 | 43 | 1013.9 |
| 20260509111509 | 56 | 320 | 1.0 | 0.0 | 0.00 | 0.00 | 0.00 | 42 | 1013.9 |
| 20260509110109 | 56 | 71 | 1.0 | 0.0 | 0.00 | 0.00 | 0.00 | 40 | 1013.7 |
| 20260509104601 | 56 | 30 | 1.0 | 0.0 | 0.00 | 0.00 | 0.00 | 42 | 1013.7 |
| 20260509103055 | 56 | 26 | 1.0 | 0.0 | 0.00 | 0.00 | 0.00 | 45 | 1013.7 |
| 20260509101556 | 57 | 22 | 1.0 | 0.0 | 0.00 | 0.00 | 0.00 | 46 | 1013.6 |
| 20260509100108 | 57 | 220 | 1.0 | 0.0 | 0.00 | 0.00 | 0.00 | 46 | 1013.5 |
| 20260509094551 | 57 | 193 | 1.0 | 0.0 | 0.00 | 0.00 | 0.00 | 46 | 1013.4 |
| 20260509093050 | 58 | 347 | 1.0 | 0.0 | 0.00 | 0.00 | 0.00 | 45 | 1013.3 |
| 20260509091550 | 58 | 238 | 1.0 | 0.0 | 0.00 | 0.00 | 0.00 | 46 | 1013.2 |
| 20260509090046 | 58 | 315 | 1.0 | 0.0 | 0.00 | 0.00 | 0.00 | 44 | 1013.0 |
| 20260509084539 | 59 | 319 | 1.0 | 0.0 | 0.00 | 0.00 | 0.00 | 43 | 1013.0 |
| 20260509083035 | 59 | 355 | 0.0 | 0.0 | 0.00 | 0.00 | 0.00 | 40 | 1012.9 |
| 20260509081532 | 59 | 270 | 1.0 | 0.0 | 0.00 | 0.00 | 0.00 | 40 | 1012.9 |
| 20260509080045 | 59 | 338 | 0.0 | 0.0 | 0.00 | 0.00 | 0.00 | 38 | 1012.9 |
| 20260509074529 | 58 | 21 | 0.0 | 0.0 | 0.00 | 0.00 | 0.00 | 39 | 1012.8 |
| 20260509073041 | 57 | 320 | 0.0 | 0.0 | 0.00 | 0.00 | 0.00 | 38 | 1012.8 |
| 20260509071521 | 55 | 9 | 0.0 | 0.0 | 0.00 | 0.00 | 0.00 | 48 | 1012.7 |
| 20260509070020 | 56 | 9 | 0.0 | 0.0 | 0.00 | 0.00 | 0.00 | 48 | 1012.5 |
| 20260509064506 | 57 | 9 | 0.0 | 0.0 | 0.00 | 0.00 | 0.00 | 45 | 1012.4 |
| 20260509063005 | 58 | 9 | 0.0 | 0.0 | 0.00 | 0.00 | 0.00 | 43 | 1012.6 |
| 20260509061505 | 57 | 5 | 0.0 | 0.0 | 0.00 | 0.00 | 0.00 | 40 | 1012.7 |
| 20260509060012 | 57 | 14 | 0.0 | 0.0 | 0.00 | 0.00 | 0.00 | 41 | 1012.7 |
| 20260509054504 | 57 | 21 | 0.0 | 0.0 | 0.00 | 0.00 | 0.00 | 42 | 1012.5 |
| 20260509053010 | 58 | 21 | 0.0 | 0.0 | 0.00 | 0.00 | 0.00 | 41 | 1012.5 |
| 20260509051503 | 59 | 21 | 0.0 | 0.0 | 0.00 | 0.00 | 0.00 | 39 | 1012.3 |
| 20260509050006 | 59 | 21 | 0.0 | 0.0 | 0.00 | 0.00 | 0.00 | 40 | 1012.2 |
| 20260509044545 | 60 | 21 | 0.0 | 0.0 | 0.00 | 0.00 | 0.00 | 39 | 1012.2 |
| 20260509043053 | 60 | 21 | 0.0 | 0.0 | 0.00 | 0.00 | 0.00 | 37 | 1012.2 |
| 20260509041527 | 61 | 21 | 0.0 | 0.0 | 0.00 | 0.00 | 0.00 | 35 | 1012.1 |
| 20260509040026 | 62 | 21 | 0.0 | 0.0 | 0.00 | 0.00 | 0.00 | 33 | 1012.0 |
| 20260509034513 | 62 | 21 | 0.0 | 0.0 | 0.00 | 0.00 | 0.00 | 34 | 1011.9 |
| 20260509033010 | 63 | 21 | 0.0 | 0.0 | 0.00 | 0.00 | 0.00 | 34 | 1011.8 |
| 20260509031556 | 63 | 21 | 0.0 | 0.0 | 0.00 | 0.00 | 0.00 | 34 | 1011.6 |
| 20260509030056 | 65 | 21 | 0.0 | 0.0 | 0.00 | 0.00 | 0.00 | 33 | 1011.6 |
| 20260509024555 | 67 | 21 | 0.0 | 0.0 | 0.00 | 0.00 | 0.00 | 33 | 1011.6 |
| 20260509023054 | 68 | 21 | 0.0 | 0.0 | 0.00 | 0.00 | 0.00 | 31 | 1011.5 |
| 20260509021554 | 70 | 21 | 0.0 | 0.0 | 0.00 | 0.00 | 0.00 | 28 | 1011.5 |
| 20260509020053 | 72 | 21 | 0.0 | 0.0 | 0.00 | 0.00 | 0.00 | 26 | 1011.5 |
| 20260509014553 | 73 | 21 | 0.0 | 0.0 | 0.00 | 0.00 | 0.00 | 27 | 1011.6 |
| 20260509013101 | 74 | 21 | 0.0 | 0.0 | 0.00 | 0.00 | 0.00 | 20 | 1011.6 |
| 20260509011533 | 75 | 21 | 0.0 | 0.0 | 0.00 | 0.00 | 0.00 | 20 | 1011.8 |
| 20260509010032 | 76 | 276 | 0.0 | 0.0 | 0.00 | 0.00 | 0.00 | 19 | 1011.9 |
| 20260509004533 | 76 | 276 | 0.0 | 0.0 | 0.00 | 0.00 | 0.00 | 20 | 1012.0 |
| 20260509003013 | 76 | 263 | 0.0 | 0.0 | 0.00 | 0.00 | 0.00 | 19 | 1012.1 |
| 20260509001554 | 76 | 291 | 0.0 | 0.0 | 0.00 | 0.00 | 0.00 | 18 | 1012.0 |
| 20260509000054 | 77 | 317 | 0.0 | 0.0 | 0.00 | 0.00 | 0.00 | 19 | 1012.0 |
| 20260508234545 | 77 | 329 | 0.0 | 0.0 | 0.00 | 0.00 | 0.00 | 20 | 1011.9 |
| 20260508233040 | 78 | 355 | 0.0 | 0.0 | 0.00 | 0.00 | 0.00 | 20 | 1011.8 |
| 20260508231539 | 78 | 332 | 0.0 | 0.0 | 0.00 | 0.00 | 0.00 | 18 | 1012.0 |
| 20260508230051 | 79 | 30 | 1.0 | 0.0 | 0.00 | 0.00 | 0.00 | 18 | 1012.3 |
| 20260508224535 | 78 | 327 | 0.0 | 0.0 | 0.00 | 0.00 | 0.00 | 20 | 1012.2 |
| 20260508223033 | 77 | 273 | 0.0 | 0.0 | 0.00 | 0.00 | 0.00 | 19 | 1012.4 |
| 20260508221530 | 77 | 264 | 1.0 | 0.0 | 0.00 | 0.00 | 0.00 | 20 | 1012.6 |
| 20260508220030 | 76 | 360 | 1.0 | 0.0 | 0.00 | 0.00 | 0.00 | 20 | 1012.8 |
| 20260508214510 | 77 | 302 | 1.0 | 0.0 | 0.00 | 0.00 | 0.00 | 19 | 1013.2 |
| 20260508213009 | 77 | 327 | 0.0 | 0.0 | 0.00 | 0.00 | 0.00 | 20 | 1013.2 |